User: anonymous   Login
Location: Unspecified
(0.0000°N, 0.0000°E)
Time: 13:55:34
(UTC+02:00)
Language:

Cosmos 1538 Rocket - Orbit

View from above orbital plane
View from above orbital plane
View from above satellite
View from above satellite

Ground track
Ground track

The orbit data is extracted from the following two-line orbital elements,

1 14760U 84019B   15241.21112412  .00000197  00000-0  76994-4 0  9993
2 14760 074.0419 248.7721 0029274 270.4001 161.4827 14.35714979649158
Epoch (UTC): 29 August 2015 05:04:01
Eccentricity: 0.0029274
inclination: 74.0419°
perigee height: 752 km
apogee height: 793 km
right ascension of ascending node: 248.7721°
argument of perigee: 270.4001°
revolutions per day: 14.35714979
mean anomaly at epoch: 161.4827°
orbit number at epoch: 64915

The dashed part of the orbit path shows where the satellite is in the earth's shadow,  

DLR